#timestamp,LO_Frequency,Hit,Temp,Hum 
1479747615.4,286047023.1,N,0.0,0.0
1479747635.3,286047025.2,N,0.0,0.0
1479747655.1,286047023.1,N,0.0,0.0
1479747675.9,286047020.4,N,0.0,0.0
1479747695.7,286047018.8,N,0.0,0.0
1479747715.5,286047014.2,N,0.0,0.0
1479747735.4,286047017.0,N,0.0,0.0
1479747755.2,286047014.3,N,0.0,0.0
1479747775.0,286047014.7,N,0.0,0.0
1479747776.0,286047014.7,N,0.0,0.0
1479747795.8,286047011.8,N,0.0,0.0
1479747815.6,286047009.4,N,0.0,0.0
1479747835.5,286047010.6,N,0.0,0.0
1479747855.3,286047007.7,N,0.0,0.0
1479747875.1,286047008.0,N,0.0,0.0
1479747895.9,286047010.5,N,0.0,0.0
1479747915.7,286047006.4,N,0.0,0.0
1479747935.5,286047007.3,N,0.0,0.0
1479747955.4,286047005.5,N,0.0,0.0
1479747975.2,286047005.8,N,0.0,0.0
1479747995.1,286047004.2,N,0.0,0.0
1479747996.0,286047004.2,N,0.0,0.0
1479748015.8,286047002.0,N,0.0,0.0
1479748035.6,286047002.8,N,0.0,0.0
1479748055.5,286046999.7,N,0.0,0.0
1479748075.3,286046998.7,N,0.0,0.0
1479748095.2,286046999.2,N,0.0,0.0
1479748115.9,286046998.9,N,0.0,0.0
1479748135.7,286046999.5,N,0.0,0.0
1479748155.6,286046994.9,N,0.0,0.0
1479748175.4,286046995.6,N,0.0,0.0
1479748195.2,286046995.7,N,0.0,0.0
1479748215.1,286046996.1,N,0.0,0.0
1479748216.0,286046996.1,N,0.0,0.0
1479748235.8,286046994.4,N,0.0,0.0
1479748255.7,286046991.8,N,0.0,0.0
1479748275.5,286046991.7,N,0.0,0.0
1479748295.3,286046994.8,N,0.0,0.0
1479748315.2,286046993.0,N,0.0,0.0
1479748335.0,286046990.6,N,0.0,0.0
1479748335.9,286046990.6,N,0.0,0.0
1479748355.7,286046990.4,N,0.0,0.0
1479748375.6,286046990.6,N,0.0,0.0
1479748395.4,286046990.8,N,0.0,0.0
1479748415.3,286046991.5,N,0.0,0.0
1479748435.1,286046991.5,N,0.0,0.0
1479748436.0,286046991.5,N,0.0,0.0
1479748455.8,286046991.1,N,0.0,0.0
1479748475.7,286046991.2,N,0.0,0.0
1479748495.5,286046988.8,N,0.0,0.0
1479748515.3,286046987.3,N,0.0,0.0
1479748535.2,286046987.0,N,0.0,0.0
1479748555.0,286046987.2,N,0.0,0.0
1479748555.9,286046987.2,N,0.0,0.0
1479748575.8,286046987.6,N,0.0,0.0
1479748595.6,286046988.3,N,0.0,0.0
1479748615.4,286046988.0,N,0.0,0.0
1479748635.3,286046985.3,N,0.0,0.0
1479748655.1,286046988.1,N,0.0,0.0
1479748675.9,286046985.3,N,0.0,0.0
1479748695.7,286046988.3,N,0.0,0.0
1479748715.5,286046986.1,N,0.0,0.0
1479748735.4,286046986.1,N,0.0,0.0
1479748755.2,286046986.3,N,0.0,0.0
1479748775.0,286046986.6,N,0.0,0.0
1479748775.9,286046986.6,N,0.0,0.0
1479748795.8,286046984.1,N,0.0,0.0
1479748815.6,286046986.7,N,0.0,0.0
1479748835.5,286046986.6,N,0.0,0.0
1479748855.3,286046986.6,N,0.0,0.0
1479748875.1,286046985.6,N,0.0,0.0
1479748895.9,286046986.4,N,0.0,0.0
1479748915.7,286046984.2,N,0.0,0.0
1479748935.5,286046984.6,N,0.0,0.0
1479748955.4,286046982.6,N,0.0,0.0
1479748975.2,286046984.6,N,0.0,0.0
1479748995.1,286046984.5,N,0.0,0.0
1479748996.0,286046984.5,N,0.0,0.0
1479749015.8,286046984.5,N,0.0,0.0
1479749035.6,286046985.0,N,0.0,0.0
1479749055.5,286046982.1,N,0.0,0.0
1479749075.3,286046982.4,N,0.0,0.0
1479749095.1,286046982.5,N,0.0,0.0
1479749115.9,286046983.0,N,0.0,0.0
1479749135.7,286046983.2,N,0.0,0.0
1479749155.6,286046981.2,N,0.0,0.0
1479749175.4,286046980.6,N,0.0,0.0
1479749195.2,286046981.1,N,0.0,0.0
1479749215.1,286046981.8,N,0.0,0.0
1479749216.0,286046981.8,N,0.0,0.0
1479749235.8,286046981.9,N,0.0,0.0
1479749255.7,286046983.2,N,0.0,0.0
1479749275.5,286046983.2,N,0.0,0.0
1479749295.3,286046980.8,N,0.0,0.0
1479749315.2,286046979.0,N,0.0,0.0
1479749335.0,286046981.1,N,0.0,0.0
1479749335.9,286046981.1,N,0.0,0.0
1479749355.7,286046978.9,N,0.0,0.0
1479749375.6,286046982.0,N,0.0,0.0
1479749395.4,286046981.6,N,0.0,0.0
1479749415.3,286046981.2,N,0.0,0.0
1479749435.1,286046981.7,N,0.0,0.0
1479749436.0,286046981.7,N,0.0,0.0
1479749455.8,286046981.4,N,0.0,0.0
1479749475.7,286046981.6,N,0.0,0.0
1479749495.5,286046981.4,N,0.0,0.0
1479749515.4,286046979.6,N,0.0,0.0
1479749535.2,286046980.4,N,0.0,0.0
1479749555.0,286046977.7,N,0.0,0.0
1479749555.9,286046977.7,N,0.0,0.0
1479749575.8,286046979.6,N,0.0,0.0
1479749595.6,286046982.0,N,0.0,0.0
1479749615.4,286046982.0,N,0.0,0.0
1479749635.3,286046980.6,N,0.0,0.0
1479749655.1,286046981.0,N,0.0,0.0
1479749675.9,286046981.8,N,0.0,0.0
1479749695.7,286046981.5,N,0.0,0.0
1479749715.5,286046981.6,N,0.0,0.0
1479749735.4,286046981.6,N,0.0,0.0
1479749755.2,286046979.3,N,0.0,0.0
1479749775.0,286046981.6,N,0.0,0.0
1479749775.9,286046981.6,N,0.0,0.0
1479749795.8,286046981.4,N,0.0,0.0
1479749815.6,286046983.3,N,0.0,0.0
1479749835.5,286046983.5,N,0.0,0.0
1479749855.3,286046981.0,N,0.0,0.0
1479749875.1,286046980.8,N,0.0,0.0
1479749895.9,286046983.5,N,0.0,0.0
1479749915.7,286046983.6,N,0.0,0.0
1479749935.5,286046983.5,N,0.0,0.0
1479749955.4,286046983.1,N,0.0,0.0
1479749975.2,286046982.4,N,0.0,0.0
1479749995.1,286046983.2,N,0.0,0.0
1479749996.0,286046983.2,N,0.0,0.0
1479750015.8,286046983.6,N,0.0,0.0
1479750035.6,286046983.4,N,0.0,0.0
1479750055.5,286046982.2,N,0.0,0.0
1479750075.3,286046982.5,N,0.0,0.0
1479750095.2,286046982.2,N,0.0,0.0
1479750115.9,286046985.1,N,0.0,0.0
1479750135.7,286046984.2,N,0.0,0.0
1479750155.6,286046984.5,N,0.0,0.0
1479750175.4,286046984.7,N,0.0,0.0
1479750195.2,286046984.9,N,0.0,0.0
1479750215.1,286046986.7,N,0.0,0.0
1479750216.0,286046986.7,N,0.0,0.0
1479750235.8,286046983.7,N,0.0,0.0
1479750255.7,286046986.7,N,0.0,0.0
1479750275.5,286046983.7,N,0.0,0.0
1479750295.3,286046985.9,N,0.0,0.0
1479750315.2,286046985.8,N,0.0,0.0
1479750335.0,286046988.3,N,0.0,0.0
1479750335.9,286046988.3,N,0.0,0.0
1479750355.8,286046988.3,N,0.0,0.0
1479750375.6,286046987.8,N,0.0,0.0
1479750395.4,286046988.0,N,0.0,0.0
1479750415.3,286046987.5,N,0.0,0.0
1479750435.1,286046987.0,N,0.0,0.0
1479750455.8,286046989.3,N,0.0,0.0
1479750475.7,286046989.9,N,0.0,0.0
1479750495.5,286046989.5,N,0.0,0.0
1479750515.4,286046988.9,N,0.0,0.0
1479750535.2,286046991.4,N,0.0,0.0
1479750555.0,286046988.9,N,0.0,0.0
1479750555.9,286046988.9,N,0.0,0.0
1479750575.8,286046989.1,N,0.0,0.0
1479750595.6,286046988.8,N,0.0,0.0
1479750615.4,286046991.0,N,0.0,0.0
1479750635.3,286046988.8,N,0.0,0.0
1479750655.1,286046989.1,N,0.0,0.0
1479750675.9,286046991.5,N,0.0,0.0
1479750695.7,286046990.7,N,0.0,0.0
1479750715.5,286046991.4,N,0.0,0.0
1479750735.4,286046991.2,N,0.0,0.0
1479750755.2,286046991.1,N,0.0,0.0
1479750775.1,286046991.3,N,0.0,0.0
1479750776.0,286046991.3,N,0.0,0.0
1479750795.8,286046991.5,N,0.0,0.0
1479750815.6,286046991.0,N,0.0,0.0
1479750835.5,286046991.4,N,0.0,0.0
1479750855.3,286046991.0,N,0.0,0.0
1479750875.1,286046988.6,N,0.0,0.0
1479750895.9,286046991.2,N,0.0,0.0
1479750915.7,286046988.5,N,0.0,0.0
1479750935.6,286046991.1,N,0.0,0.0
1479750955.4,286046988.7,N,0.0,0.0
1479750975.2,286046988.7,N,0.0,0.0
1479750995.1,286046988.9,N,0.0,0.0
1479750996.0,286046988.9,N,0.0,0.0
1479751015.8,286046993.2,N,0.0,0.0
1479751035.6,286046990.1,N,0.0,0.0
1479751055.5,286046992.9,N,0.0,0.0
1479751075.3,286046993.1,N,0.0,0.0
1479751095.2,286046992.6,N,0.0,0.0
1479751115.9,286046992.5,N,0.0,0.0
1479751135.7,286046992.0,N,0.0,0.0
1479751155.6,286046994.8,N,0.0,0.0
1479751175.4,286046993.5,N,0.0,0.0
1479751195.2,286046994.3,N,0.0,0.0
